Change the Weather History Date:

Sunday, February 2, 2014

  Actual Average Record
Temperature  
Mean Temperature 11 °F 23 °F  
Max Temperature 20 °F 30 °F 49 °F (1992)
Min Temperature 1 °F 16 °F -20 °F (1996)
Degree Days  
Heating Degree Days 54 42  
Month to date heating degree days 100 84  
Since 1 July heating degree days 4403 3969  
Cooling Degree Days 0 0  
Month to date cooling degree days 0 0  
Year to date cooling degree days 0 0  
Moisture  
Dew Point 3 °F    
Average Humidity 68    
Maximum Humidity 86    
Minimum Humidity 49    
Precipitation  
Precipitation 0.00 in 0.06 in 1.04 in (1983)
Month to date precipitation 0.18 0.11  
Year to date precipitation 1.29 1.87  
Snow  
Snow 0.00 in 0.40 in 9.10 in (2011)
Month to date snowfall 2.4 0.8  
Since 1 July snowfall 43.3 28.8  
Snow Depth 11.00 in    
Sea Level Pressure  
Sea Level Pressure 30.26 in    
Wind  
Wind Speed 8 mph (WNW)    
Max Wind Speed 16 mph    
Max Gust Speed 20 mph    
Visibility 10 miles    
Events      
T = Trace of Precipitation, MM = Missing Value Source: NWS Daily Summary

Daily Weather History Graph

Daily Weather History Graph

Search for Another Location

Airport or City:

Trip Planner

Search our weather history database for the weather conditions in past years. The results will help you decide how hot, cold, wet, or windy it might be!

Date:

Astronomy

Feb. 02, 2014 Rise Set
Actual Time 7:05 AM CST 5:05 PM CST
Civil Twilight 6:35 AM CST 5:35 PM CST
Nautical Twilight 6:01 AM CST 6:09 PM CST
Astronomical Twilight 5:28 AM CST 6:42 PM CST
Moon 8:25 AM CST (2/2) 8:56 PM CST (2/2)
Length of Visible Light 11h 00m
Length of Day
10h 00m
Waxing Crescent, 11% of the Moon is Illuminated
Feb 2
Waxing Crescent
Feb 6
First Quarter
Feb 14
Full
Feb 22
Last Quarter
Mar 1
New

Hourly Weather History & Observations

Time (CST) Temp. Windchill Dew Point Humidity Pressure Visibility Wind Dir Wind Speed Gust Speed Precip Events Conditions
12:17 AM 18.0 °F 4.8 °F 10.9 °F 74% 30.07 in 10.0 mi NW 12.7 mph - N/A   Scattered Clouds
12:52 AM 17.1 °F 5.0 °F 10.0 °F 74% 30.12 in 10.0 mi NW 10.4 mph - N/A   Scattered Clouds
1:52 AM 16.0 °F 3.6 °F 7.0 °F 68% 30.14 in 10.0 mi NW 10.4 mph - N/A   Mostly Cloudy
2:52 AM 16.0 °F 5.3 °F 7.0 °F 68% 30.16 in 10.0 mi NW 8.1 mph - N/A   Mostly Cloudy
3:52 AM 14.0 °F 2.9 °F 6.1 °F 71% 30.17 in 10.0 mi WNW 8.1 mph - N/A   Partly Cloudy
4:52 AM 12.0 °F 0.5 °F 5.0 °F 73% 30.18 in 10.0 mi NW 8.1 mph - N/A   Partly Cloudy
5:52 AM 10.9 °F -3.4 °F 3.9 °F 73% 30.19 in 10.0 mi NW 11.5 mph - N/A   Mostly Cloudy
6:52 AM 10.0 °F -2.9 °F 3.0 °F 73% 30.23 in 10.0 mi NW 9.2 mph - N/A   Partly Cloudy
7:52 AM 10.0 °F -1.9 °F 3.0 °F 73% 30.25 in 10.0 mi WNW 8.1 mph - N/A   Partly Cloudy
8:52 AM 12.0 °F -2.0 °F 3.9 °F 70% 30.27 in 10.0 mi WNW 11.5 mph - N/A   Partly Cloudy
9:52 AM 14.0 °F -1.4 °F 3.9 °F 64% 30.27 in 10.0 mi NW 15.0 mph - N/A   Partly Cloudy
10:52 AM 15.1 °F 0.5 °F 3.9 °F 61% 30.29 in 10.0 mi WNW 13.8 mph - N/A   Partly Cloudy
11:52 AM 17.1 °F 7.6 °F 5.0 °F 59% 30.29 in 10.0 mi WNW 6.9 mph - N/A   Scattered Clouds
12:52 PM 19.0 °F 7.5 °F 5.0 °F 54% 30.27 in 10.0 mi NW 10.4 mph - N/A   Scattered Clouds
1:52 PM 19.0 °F 10.0 °F 3.9 °F 52% 30.27 in 10.0 mi West 6.9 mph - N/A   Scattered Clouds
2:52 PM 19.0 °F 11.1 °F 3.9 °F 52% 30.28 in 10.0 mi Variable 5.8 mph - N/A   Mostly Cloudy
3:52 PM 18.0 °F 7.7 °F 1.9 °F 50% 30.32 in 10.0 mi WNW 8.1 mph - N/A   Mostly Cloudy
4:52 PM 17.1 °F 7.6 °F 1.9 °F 52% 30.32 in 10.0 mi NW 6.9 mph - N/A   Scattered Clouds
5:52 PM 14.0 °F 6.5 °F 1.9 °F 59% 30.33 in 10.0 mi WNW 4.6 mph - N/A   Scattered Clouds
6:52 PM 12.9 °F 3.8 °F 1.0 °F 59% 30.32 in 10.0 mi WNW 5.8 mph - N/A   Partly Cloudy
7:52 PM 10.9 °F 4.7 °F 1.0 °F 64% 30.32 in 10.0 mi WNW 3.5 mph - N/A   Partly Cloudy
8:52 PM 9.0 °F 2.4 °F -0.0 °F 67% 30.33 in 10.0 mi SW 3.5 mph - N/A   Partly Cloudy
9:52 PM 7.0 °F 0.1 °F -0.0 °F 73% 30.32 in 10.0 mi West 3.5 mph - N/A   Partly Cloudy
10:52 PM 3.9 °F - -0.9 °F 80% 30.33 in 9.0 mi Calm Calm - N/A   Partly Cloudy
11:52 PM 1.0 °F - -2.9 °F 83% 30.33 in 8.0 mi Calm Calm - N/A   Partly Cloudy